ASL100 LYBE-LICC

Flight info

Callsign ASL100
Flight time 1h 34m
Altitude 330
Route VAL3F VAL Y88 VEBAR AIOSA KUTID PELEN UXUTA UXUT1Q
Aircraft B738/M-SDE3FGHIRWY/LB1

Departure

Time 2026-04-27 12:07
Airport Belgrade Nikola Tesla Airport (LYBE)

Arrival

Time 2026-04-27 13:42
Airport Catania-Fontanarossa Airport (LICC)
Time Latitude Longitude Altitude Speed Heading
2026-04-27 12:05 44.82063 20.29496 308 ft 0 kts 30°
2026-04-27 12:06 44.82064 20.29497 308 ft 1 kts 30°
2026-04-27 12:06 44.82085 20.29515 307 ft 6 kts 32°
2026-04-27 12:06 44.82133 20.29557 307 ft 10 kts 31°
2026-04-27 12:06 44.82198 20.29624 311 ft 13 kts 64°
2026-04-27 12:07 44.82159 20.29762 308 ft 28 kts 123°
2026-04-27 12:07 44.81914 20.30308 307 ft 108 kts 121°
2026-04-27 12:07 44.81387 20.31519 361 ft 175 kts 120°
2026-04-27 12:07 44.80764 20.33099 1131 ft 197 kts 117°
2026-04-27 12:08 44.80112 20.34878 2040 ft 207 kts 117°
2026-04-27 12:08 44.79282 20.36503 3102 ft 205 kts 142°
2026-04-27 12:08 44.77870 20.37219 3157 ft 234 kts 174°
2026-04-27 12:08 44.76231 20.37171 2993 ft 240 kts 182°
2026-04-27 12:09 44.74523 20.37058 2914 ft 249 kts 179°
2026-04-27 12:09 44.72800 20.37095 2841 ft 252 kts 177°
2026-04-27 12:09 44.71015 20.37199 3332 ft 256 kts 176°
2026-04-27 12:09 44.69244 20.37328 4341 ft 256 kts 176°
2026-04-27 12:10 44.67444 20.37468 5191 ft 262 kts 177°
2026-04-27 12:10 44.65602 20.37607 6016 ft 268 kts 178°
2026-04-27 12:10 44.63753 20.37745 6855 ft 273 kts 179°
2026-04-27 12:10 44.61833 20.37882 7678 ft 279 kts 179°
2026-04-27 12:11 44.59841 20.38023 8207 ft 297 kts 179°
2026-04-27 12:11 44.57738 20.38170 8825 ft 307 kts 179°
2026-04-27 12:11 44.55591 20.38322 9624 ft 311 kts 179°
2026-04-27 12:11 44.53414 20.38474 10415 ft 315 kts 181°
2026-04-27 12:12 44.51225 20.38293 11171 ft 316 kts 195°
2026-04-27 12:12 44.49290 20.36980 11918 ft 309 kts 226°
2026-04-27 12:12 44.48154 20.34529 12787 ft 300 kts 256°
2026-04-27 12:12 44.47709 20.31691 13625 ft 300 kts 258°
2026-04-27 12:13 44.46978 20.28900 14175 ft 312 kts 245°
2026-04-27 12:13 44.45904 20.26249 14913 ft 313 kts 242°
2026-04-27 12:13 44.44825 20.23599 15631 ft 315 kts 244°
2026-04-27 12:13 44.43857 20.20841 16285 ft 317 kts 248°
2026-04-27 12:14 44.42956 20.18012 16978 ft 320 kts 248°
2026-04-27 12:14 44.42042 20.15162 17665 ft 323 kts 248°
2026-04-27 12:14 44.41092 20.12300 18337 ft 326 kts 247°
2026-04-27 12:14 44.40109 20.09431 18934 ft 329 kts 246°
2026-04-27 12:15 44.39103 20.06547 19541 ft 331 kts 246°
2026-04-27 12:15 44.38088 20.03656 20162 ft 332 kts 246°
2026-04-27 12:15 44.37065 20.00745 20753 ft 335 kts 246°
2026-04-27 12:15 44.36031 19.97808 21309 ft 338 kts 246°
2026-04-27 12:16 44.34991 19.94851 21905 ft 340 kts 246°
2026-04-27 12:16 44.33944 19.91878 22481 ft 342 kts 246°
2026-04-27 12:16 44.32888 19.88884 23028 ft 345 kts 246°
2026-04-27 12:16 44.31852 19.85845 23546 ft 347 kts 248°
2026-04-27 12:17 44.30923 19.82724 24039 ft 349 kts 251°
2026-04-27 12:17 44.30086 19.79533 24505 ft 351 kts 252°
2026-04-27 12:17 44.29270 19.76320 24968 ft 352 kts 252°
2026-04-27 12:17 44.28442 19.73093 25398 ft 354 kts 252°
2026-04-27 12:18 44.27593 19.69853 25823 ft 357 kts 251°
2026-04-27 12:18 44.26725 19.66598 26264 ft 359 kts 251°
2026-04-27 12:18 44.26143 19.64439 26581 ft 359 kts 251°
2026-04-27 12:18 44.25264 19.61200 27203 ft 355 kts 251°
2026-04-27 12:19 44.24394 19.58009 27888 ft 350 kts 251°
2026-04-27 12:19 44.23530 19.54845 28394 ft 349 kts 251°
2026-04-27 12:19 44.22664 19.51675 28795 ft 351 kts 251°
2026-04-27 12:19 44.21793 19.48495 29323 ft 350 kts 251°
2026-04-27 12:20 44.20931 19.45349 29970 ft 345 kts 251°
2026-04-27 12:20 44.20079 19.42245 30513 ft 341 kts 251°
2026-04-27 12:20 44.19229 19.39152 30838 ft 343 kts 251°
2026-04-27 12:20 44.18371 19.36030 31091 ft 346 kts 251°
2026-04-27 12:21 44.17539 19.32891 31496 ft 344 kts 252°
2026-04-27 12:21 44.16732 19.29773 31951 ft 340 kts 252°
2026-04-27 12:21 44.15928 19.26671 32271 ft 341 kts 252°
2026-04-27 12:21 44.15116 19.23553 32484 ft 344 kts 252°
2026-04-27 12:22 44.14283 19.20430 32794 ft 344 kts 249°
2026-04-27 12:22 44.13154 19.17492 33078 ft 349 kts 234°
2026-04-27 12:22 44.11296 19.15283 33089 ft 357 kts 214°
2026-04-27 12:22 44.09135 19.13608 33271 ft 356 kts 212°
2026-04-27 12:23 44.06942 19.11945 33148 ft 361 kts 214°
2026-04-27 12:23 44.02720 19.08258 33161 ft 362 kts 218°
2026-04-27 12:24 43.98477 19.04297 33143 ft 379 kts 218°
2026-04-27 12:24 43.94009 19.00169 33160 ft 394 kts 217°
2026-04-27 12:25 43.89346 18.95917 33148 ft 409 kts 217°
2026-04-27 12:25 43.84501 18.91531 33143 ft 423 kts 217°
2026-04-27 12:26 43.79487 18.87009 33163 ft 436 kts 217°
2026-04-27 12:26 43.74327 18.82365 33156 ft 448 kts 216°
2026-04-27 12:27 43.69062 18.77639 33135 ft 452 kts 216°
2026-04-27 12:27 43.63773 18.72900 33119 ft 453 kts 216°
2026-04-27 12:28 43.58522 18.68206 33133 ft 446 kts 216°
2026-04-27 12:28 43.53328 18.63569 33129 ft 443 kts 216°
2026-04-27 12:29 43.48157 18.58961 33117 ft 442 kts 216°
2026-04-27 12:29 43.42998 18.54374 33122 ft 442 kts 216°
2026-04-27 12:30 43.37840 18.49796 33166 ft 440 kts 216°
2026-04-27 12:30 43.32666 18.45214 33113 ft 443 kts 216°
2026-04-27 12:31 43.27474 18.40626 33082 ft 446 kts 216°
2026-04-27 12:31 43.22287 18.36052 33079 ft 448 kts 216°
2026-04-27 12:32 43.17047 18.31441 33080 ft 449 kts 216°
2026-04-27 12:32 43.11788 18.26824 33084 ft 450 kts 216°
2026-04-27 12:33 43.06523 18.22210 33112 ft 450 kts 216°
2026-04-27 12:33 43.01256 18.17605 33117 ft 450 kts 216°
2026-04-27 12:34 42.95986 18.13006 33129 ft 449 kts 216°
2026-04-27 12:34 42.90719 18.08419 33125 ft 449 kts 216°
2026-04-27 12:35 42.85454 18.03843 33117 ft 449 kts 216°
2026-04-27 12:35 42.80188 17.99275 33113 ft 449 kts 216°
2026-04-27 12:36 42.74921 17.94716 33119 ft 448 kts 216°
2026-04-27 12:36 42.69651 17.90164 33107 ft 449 kts 216°
2026-04-27 12:37 42.64388 17.85627 33117 ft 448 kts 216°
2026-04-27 12:37 42.59122 17.81097 33139 ft 448 kts 216°
2026-04-27 12:38 42.53852 17.76572 33132 ft 448 kts 216°
2026-04-27 12:38 42.48579 17.72054 33115 ft 449 kts 216°
2026-04-27 12:39 42.43303 17.67542 33134 ft 448 kts 216°
2026-04-27 12:39 42.38026 17.63039 33125 ft 449 kts 216°
2026-04-27 12:40 42.32741 17.58538 33125 ft 449 kts 216°
2026-04-27 12:40 42.27452 17.54043 33132 ft 449 kts 216°
2026-04-27 12:41 42.22159 17.49553 33124 ft 449 kts 216°
2026-04-27 12:41 42.16866 17.45071 33126 ft 450 kts 216°
2026-04-27 12:42 42.11565 17.40593 33128 ft 450 kts 216°
2026-04-27 12:42 42.06259 17.36119 33130 ft 450 kts 216°
2026-04-27 12:43 42.00955 17.31654 33129 ft 450 kts 216°
2026-04-27 12:43 41.95643 17.27191 33124 ft 450 kts 216°
2026-04-27 12:44 41.90684 17.22196 33038 ft 442 kts 235°
2026-04-27 12:44 41.88953 17.18834 33221 ft 436 kts 240°
2026-04-27 12:44 41.87298 17.15415 33114 ft 439 kts 237°
2026-04-27 12:45 41.84240 17.11436 33211 ft 445 kts 219°
2026-04-27 12:45 41.79869 17.07250 33139 ft 446 kts 222°
2026-04-27 12:46 41.75729 17.01978 33150 ft 442 kts 231°
2026-04-27 12:46 41.71991 16.96315 33118 ft 444 kts 231°
2026-04-27 12:47 41.67842 16.90187 33115 ft 445 kts 230°
2026-04-27 12:47 41.63575 16.84176 33110 ft 446 kts 229°
2026-04-27 12:48 41.59252 16.78218 33110 ft 447 kts 229°
2026-04-27 12:48 41.54920 16.72278 33121 ft 447 kts 229°
2026-04-27 12:49 41.50580 16.66330 33127 ft 447 kts 229°
2026-04-27 12:49 41.46242 16.60391 33124 ft 447 kts 229°
2026-04-27 12:50 41.41901 16.54456 33118 ft 447 kts 229°
2026-04-27 12:50 41.37550 16.48522 33122 ft 448 kts 229°
2026-04-27 12:51 41.33193 16.42591 33113 ft 448 kts 229°
2026-04-27 12:51 41.28863 16.36708 33121 ft 448 kts 229°
2026-04-27 12:52 41.24496 16.30787 33119 ft 449 kts 228°
2026-04-27 12:52 41.20117 16.24863 33113 ft 449 kts 228°
2026-04-27 12:53 41.13541 16.15988 33104 ft 450 kts 228°
2026-04-27 12:53 41.09144 16.10070 33121 ft 450 kts 228°
2026-04-27 12:54 41.04743 16.04156 33100 ft 451 kts 228°
2026-04-27 12:54 41.00332 15.98243 33105 ft 451 kts 228°
2026-04-27 12:55 40.95918 15.92337 33117 ft 451 kts 228°
2026-04-27 12:55 40.91504 15.86442 33104 ft 452 kts 227°
2026-04-27 12:56 40.87070 15.80534 33118 ft 452 kts 227°
2026-04-27 12:56 40.82638 15.74640 33122 ft 453 kts 227°
2026-04-27 12:57 40.78190 15.68737 33119 ft 453 kts 227°
2026-04-27 12:57 40.73740 15.62841 33097 ft 453 kts 227°
2026-04-27 12:58 40.69290 15.56958 33105 ft 454 kts 227°
2026-04-27 12:58 40.64832 15.51077 33116 ft 454 kts 227°
2026-04-27 12:59 40.60356 15.45184 33114 ft 455 kts 227°
2026-04-27 12:59 40.55885 15.39308 33127 ft 455 kts 227°
2026-04-27 13:00 40.51409 15.33438 33119 ft 455 kts 227°
2026-04-27 13:00 40.46925 15.27565 33143 ft 455 kts 227°
2026-04-27 13:01 40.42385 15.21772 33112 ft 457 kts 222°
2026-04-27 13:01 40.39683 15.19575 33024 ft 463 kts 201°
2026-04-27 13:01 40.36561 15.18534 33229 ft 461 kts 192°
2026-04-27 13:02 40.30210 15.17111 33141 ft 465 kts 193°
2026-04-27 13:02 40.23977 15.14893 33146 ft 464 kts 200°
2026-04-27 13:03 40.17832 15.12314 33137 ft 464 kts 199°
2026-04-27 13:03 40.11653 15.09854 33140 ft 465 kts 198°
2026-04-27 13:04 40.05433 15.07511 33155 ft 464 kts 198°
2026-04-27 13:04 40.00279 15.05608 33139 ft 464 kts 198°
2026-04-27 13:05 39.94067 15.03322 33154 ft 463 kts 198°
2026-04-27 13:05 39.87852 15.01032 33132 ft 464 kts 198°
2026-04-27 13:06 39.81652 14.98748 33153 ft 463 kts 198°
2026-04-27 13:06 39.75453 14.96468 33129 ft 463 kts 198°
2026-04-27 13:07 39.69254 14.94193 33151 ft 462 kts 198°
2026-04-27 13:07 39.63067 14.91926 33138 ft 462 kts 198°
2026-04-27 13:08 39.56882 14.89665 33146 ft 462 kts 198°
2026-04-27 13:08 39.50702 14.87409 33142 ft 462 kts 198°
2026-04-27 13:09 39.44510 14.85153 33139 ft 462 kts 198°
2026-04-27 13:09 39.38333 14.82907 33155 ft 461 kts 198°
2026-04-27 13:10 39.32144 14.80660 33129 ft 462 kts 198°
2026-04-27 13:10 39.25964 14.78421 33153 ft 461 kts 198°
2026-04-27 13:11 39.19782 14.76186 33138 ft 462 kts 198°
2026-04-27 13:11 39.13597 14.73953 33142 ft 461 kts 198°
2026-04-27 13:12 39.07394 14.71718 32771 ft 464 kts 197°
2026-04-27 13:12 39.04276 14.70596 32064 ft 466 kts 197°
2026-04-27 13:12 39.01165 14.69478 31503 ft 463 kts 198°
2026-04-27 13:13 38.98060 14.68363 30947 ft 466 kts 198°
2026-04-27 13:13 38.94928 14.67239 30376 ft 468 kts 198°
2026-04-27 13:13 38.91783 14.66112 29767 ft 470 kts 198°
2026-04-27 13:13 38.88633 14.64983 29125 ft 471 kts 198°
2026-04-27 13:14 38.85472 14.63852 28445 ft 472 kts 197°
2026-04-27 13:14 38.82298 14.62716 27776 ft 474 kts 197°
2026-04-27 13:14 38.79120 14.61581 27137 ft 475 kts 197°
2026-04-27 13:14 38.75933 14.60444 26511 ft 476 kts 197°
2026-04-27 13:15 38.72743 14.59306 25887 ft 477 kts 197°
2026-04-27 13:15 38.69545 14.58167 25283 ft 477 kts 197°
2026-04-27 13:15 38.66347 14.57029 24692 ft 477 kts 197°
2026-04-27 13:15 38.63154 14.55894 24111 ft 476 kts 197°
2026-04-27 13:16 38.60025 14.54783 23511 ft 469 kts 197°
2026-04-27 13:16 38.56901 14.53674 22836 ft 462 kts 197°
2026-04-27 13:16 38.53822 14.52582 22176 ft 457 kts 197°
2026-04-27 13:16 38.50771 14.51502 21536 ft 453 kts 197°
2026-04-27 13:17 38.47746 14.50432 20905 ft 449 kts 197°
2026-04-27 13:17 38.44745 14.49370 20278 ft 446 kts 196°
2026-04-27 13:17 38.41763 14.48315 19682 ft 443 kts 196°
2026-04-27 13:17 38.38801 14.47269 19089 ft 441 kts 196°
2026-04-27 13:18 38.35848 14.46253 18502 ft 438 kts 194°
2026-04-27 13:18 38.32866 14.45481 17831 ft 436 kts 189°
2026-04-27 13:18 38.29846 14.45335 17006 ft 437 kts 172°
2026-04-27 13:18 38.27014 14.46658 16370 ft 434 kts 148°
2026-04-27 13:19 38.24674 14.49012 15961 ft 424 kts 138°
2026-04-27 13:19 38.22490 14.51514 15307 ft 422 kts 140°
2026-04-27 13:19 38.20099 14.53625 14592 ft 418 kts 155°
2026-04-27 13:19 38.17360 14.54744 14108 ft 409 kts 168°
2026-04-27 13:20 38.14596 14.55464 13476 ft 405 kts 170°
2026-04-27 13:20 38.11872 14.56331 12767 ft 403 kts 160°
2026-04-27 13:20 38.09561 14.58321 11999 ft 406 kts 132°
2026-04-27 13:20 38.07927 14.61181 11586 ft 396 kts 123°
2026-04-27 13:21 38.06458 14.64125 11099 ft 390 kts 124°
2026-04-27 13:21 38.04759 14.66651 11053 ft 370 kts 147°
2026-04-27 13:21 38.02418 14.67530 11117 ft 344 kts 185°
2026-04-27 13:21 38.00163 14.66916 11168 ft 323 kts 198°
2026-04-27 13:22 37.98017 14.66272 11104 ft 312 kts 185°
2026-04-27 13:22 37.95923 14.66650 11175 ft 298 kts 165°
2026-04-27 13:22 37.93964 14.67392 11110 ft 288 kts 166°
2026-04-27 13:22 37.92039 14.67960 11120 ft 283 kts 172°
2026-04-27 13:23 37.90095 14.68344 11148 ft 283 kts 174°
2026-04-27 13:23 37.88130 14.68683 11124 ft 285 kts 174°
2026-04-27 13:23 37.86163 14.69025 11126 ft 284 kts 174°
2026-04-27 13:23 37.84206 14.69380 11119 ft 285 kts 174°
2026-04-27 13:24 37.82242 14.69743 11114 ft 285 kts 173°
2026-04-27 13:24 37.80283 14.70114 11122 ft 284 kts 173°
2026-04-27 13:24 37.78326 14.70490 11056 ft 287 kts 173°
2026-04-27 13:24 37.76335 14.70875 10810 ft 291 kts 173°
2026-04-27 13:25 37.74345 14.71264 10656 ft 288 kts 173°
2026-04-27 13:25 37.72371 14.71649 10458 ft 286 kts 173°
2026-04-27 13:25 37.70419 14.72029 10264 ft 282 kts 173°
2026-04-27 13:25 37.68493 14.72406 10090 ft 279 kts 173°
2026-04-27 13:26 37.66570 14.72781 9907 ft 280 kts 173°
2026-04-27 13:26 37.64641 14.73158 9701 ft 280 kts 173°
2026-04-27 13:26 37.62713 14.73533 9514 ft 280 kts 173°
2026-04-27 13:26 37.60782 14.73910 9310 ft 281 kts 173°
2026-04-27 13:27 37.58853 14.74286 9122 ft 280 kts 173°
2026-04-27 13:27 37.56919 14.74458 8841 ft 279 kts 191°
2026-04-27 13:27 37.55246 14.73395 8603 ft 269 kts 229°
2026-04-27 13:27 37.54392 14.71387 8332 ft 266 kts 256°
2026-04-27 13:28 37.54059 14.69073 8140 ft 263 kts 263°
2026-04-27 13:28 37.53829 14.66803 7930 ft 260 kts 263°
2026-04-27 13:28 37.53582 14.64567 7742 ft 256 kts 262°
2026-04-27 13:28 37.53306 14.62343 7569 ft 258 kts 261°
2026-04-27 13:29 37.53014 14.60127 7390 ft 262 kts 261°
2026-04-27 13:29 37.52708 14.57854 7226 ft 264 kts 261°
2026-04-27 13:29 37.52395 14.55546 7029 ft 263 kts 261°
2026-04-27 13:29 37.52107 14.53303 6870 ft 263 kts 263°
2026-04-27 13:30 37.51894 14.51025 6731 ft 261 kts 264°
2026-04-27 13:30 37.51705 14.48761 6726 ft 258 kts 264°
2026-04-27 13:30 37.51290 14.46576 6667 ft 260 kts 240°
2026-04-27 13:30 37.50010 14.44988 6731 ft 264 kts 207°
2026-04-27 13:31 37.48236 14.44454 6739 ft 263 kts 181°
2026-04-27 13:31 37.46437 14.44585 6703 ft 255 kts 174°
2026-04-27 13:31 37.44714 14.44844 6705 ft 243 kts 172°
2026-04-27 13:31 37.43118 14.45372 6683 ft 232 kts 151°
2026-04-27 13:32 37.42073 14.46771 6714 ft 214 kts 112°
2026-04-27 13:32 37.41727 14.48550 6719 ft 211 kts 94°
2026-04-27 13:32 37.41770 14.50367 6737 ft 206 kts 84°
2026-04-27 13:32 37.41934 14.52156 6715 ft 206 kts 83°
2026-04-27 13:33 37.42105 14.53948 6727 ft 206 kts 83°
2026-04-27 13:33 37.42272 14.55742 6716 ft 208 kts 83°
2026-04-27 13:33 37.42439 14.57552 6720 ft 208 kts 83°
2026-04-27 13:33 37.42604 14.59369 6682 ft 209 kts 83°
2026-04-27 13:34 37.42765 14.61179 6697 ft 207 kts 83°
2026-04-27 13:34 37.42927 14.63002 6389 ft 216 kts 83°
2026-04-27 13:34 37.43095 14.64892 5977 ft 216 kts 83°
2026-04-27 13:34 37.43260 14.66767 5537 ft 214 kts 83°
2026-04-27 13:35 37.43427 14.68598 5105 ft 208 kts 84°
2026-04-27 13:35 37.43597 14.70391 4690 ft 205 kts 83°
2026-04-27 13:35 37.43762 14.72160 4254 ft 203 kts 83°
2026-04-27 13:35 37.43938 14.73909 3838 ft 200 kts 84°
2026-04-27 13:36 37.44110 14.75591 3710 ft 183 kts 83°
2026-04-27 13:36 37.44266 14.77117 3660 ft 172 kts 82°
2026-04-27 13:36 37.44426 14.78615 3714 ft 173 kts 83°
2026-04-27 13:36 37.44580 14.80104 3743 ft 169 kts 83°
2026-04-27 13:37 37.44736 14.81587 3696 ft 172 kts 84°
2026-04-27 13:37 37.44891 14.83076 3542 ft 175 kts 84°
2026-04-27 13:37 37.45055 14.84610 3162 ft 176 kts 83°
2026-04-27 13:37 37.45219 14.86115 2898 ft 169 kts 83°
2026-04-27 13:38 37.45376 14.87561 2910 ft 167 kts 83°
2026-04-27 13:38 37.45542 14.89012 2819 ft 167 kts 83°
2026-04-27 13:38 37.45704 14.90454 2710 ft 165 kts 84°
2026-04-27 13:38 37.45856 14.91883 2596 ft 164 kts 83°
2026-04-27 13:39 37.45995 14.93310 2458 ft 164 kts 83°
2026-04-27 13:39 37.46115 14.94701 2278 ft 159 kts 86°
2026-04-27 13:39 37.46165 14.96113 2009 ft 163 kts 89°
2026-04-27 13:39 37.46217 14.97562 1519 ft 165 kts 89°
2026-04-27 13:40 37.46271 14.98935 1346 ft 150 kts 91°
2026-04-27 13:40 37.46236 15.00229 1228 ft 148 kts 89°
2026-04-27 13:40 37.46307 15.01523 892 ft 146 kts 84°
2026-04-27 13:40 37.46350 15.02667 573 ft 145 kts 88°
2026-04-27 13:41 37.46435 15.03865 312 ft 140 kts 83°
2026-04-27 13:41 37.46540 15.05105 95 ft 141 kts 82°
2026-04-27 13:41 37.46645 15.06263 39 ft 119 kts 86°
2026-04-27 13:41 37.46719 15.07107 32 ft 75 kts 84°
2026-04-27 13:42 37.46773 15.07559 31 ft 35 kts 70°
2026-04-27 13:42 37.46869 15.07787 29 ft 23 kts 41°
2026-04-27 13:42 37.46927 15.07807 28 ft 0 kts 359°
2026-04-27 13:43 37.46941 15.07769 29 ft 8 kts 269°
2026-04-27 13:43 37.46931 15.07657 32 ft 17 kts 260°
2026-04-27 13:43 37.46910 15.07466 32 ft 25 kts 263°
2026-04-27 13:43 37.46893 15.07251 34 ft 25 kts 265°
2026-04-27 13:44 37.46878 15.07061 33 ft 16 kts 263°
2026-04-27 13:44 37.46865 15.06880 30 ft 25 kts 264°
2026-04-27 13:44 37.46850 15.06733 32 ft 9 kts 263°
2026-04-27 13:44 37.46854 15.06693 31 ft 2 kts 306°
2026-04-27 13:45 37.46894 15.06686 32 ft 9 kts 355°
2026-04-27 13:45 37.46921 15.06683 31 ft 0 kts 354°
2026-04-27 13:45 37.46923 15.06683 31 ft 0 kts 354°